Find Starlink 32716

NORAD ID: 63031 Int'l Des: 2025-034 Owner: SPXS Country: US Constellation: starlink operational
LEOCIRCULAR

現在のビュー

3D地球を読み込み中...

About Starlink 32716

Starlink 32716 (NORAD 63031) is a starlink constellation satellite (v2 mini) launched Feb 18, 2025 by SPXS of US. It operates in LEO, CIRCULAR orbit with a mass of 730.00 kg.

Starlink 32716について

説明を読み込み中...

次回通過

Passes for default location (London). Set your location on the main map for personalized predictions.

高度履歴

Loading altitude history...

軌道要素

1 63031U 25034C 26194.82279244 .00011090 00000-0 33878-3 0 9990
2 63031 53.1595 30.4545 0000991 85.8442 274.2674 15.34408480 78424
Epoch: Jul 13, 2026 • Age: 15 hours

現在のステータス

高度 462.8 km
遠地点 / 近地点 N/A
速度 7.64 km/s
衛星直下点 7.58°N, 111.23°E
打ち上げ日 Feb 18, 2025
運用期間 1.3 years
タイプ internet

技術仕様

分類 Payload
質量 730.00 kg
乾燥質量 700.00 kg
総質量 730.00 kg
長さ 0.30 m
直径 4.10 m
スパン 29.00 m
形状 Box + pan
製造者 SPXS
バスタイプ Starlink V2M
フェーズステータス In Orbit
所有者/国 SPXS/US

Most Searched